Location: Igri�s
(42.2144°N, 0.4320°W)
Time: 12:15:08
(UTC+00:00)

Meteor 1-5 Rocket - Pass Details

Date: 13 August 2020
Orbit: 788 x 916 km, 81.2° (Epoch: 24 September)

Event Time Altitude Azimuth Distance (km) Brightness Sun altitude
Exits shadow 21:42:09 58° 137° (SE) 1,058 4.3 -24.5°
Maximum altitude 21:43:00 65° 96° (E) 1,000 4.3 -24.6°
Drops below altitude 10° 21:48:52 10° 16° (NNE) 2,594 7.2 -25.2°
Sets 21:51:20 0° 13° (NNE) 3,526 8.0 -25.5°
